Hourly Data Report for May 28, 2012

All times are specified in Local Standard Time (LST). Add 1 hour to adjust for Daylight Saving Time where and when it is observed.

YARMOUTH A
NOVA SCOTIA

43°49'37.000" N
66°05'17.000" W
42.90 m
8206495
71603
YQI

Download Data

Hourly Data (May 2012)
Hourly Data Report for May 28, 2012
Temp Definition
°C
Dew Point Temp Definition
°C
Rel Hum Definition
%
Wind Dir Definition
10's deg

Wind Spd Definition
km/h
Visibility Definition
km
Stn Press Definition
kPa
Hmdx Definition


Wind Chill Definition


Weather Definition


TIME
00:00 11.9 8.0 77 20 8 10.0 101.32     LegendNANA
01:00 10.9 8.8 87   0 10.0 101.26     LegendNANA
02:00 11.6 8.3 80 16 7 10.0 101.16     Cloudy
03:00 11.5 8.7 83 32 4 10.0 101.19     Rain Showers
04:00 11.3 9.7 90 30 4 10.0 101.23     Rain Showers
05:00 11.4 10.2 92 32 5 10.0 101.24     Rain Showers
06:00 11.4 10.5 94   0 10.0 101.25     Rain Showers
07:00 11.6 11.0 96 20 5 10.0 101.26     Rain Showers
08:00 11.7 10.3 91 22 4 8.1 101.26     Rain Showers,Fog
09:00 12.0 9.6 85 21 5 10.0 101.20     LegendNANA
10:00 13.2 11.3 88 20 4 10.0 101.17     LegendNANA
11:00 14.5 12.2 86 27 6 10.0 101.17     Cloudy
12:00 15.5 11.7 78 30 11 10.0 101.11     LegendNANA
13:00 16.4 11.8 74 29 13 10.0 101.12     LegendNANA
14:00 16.5 11.5 72 30 17 10.0 101.14     Cloudy
15:00 15.8 10.8 72 27 11 10.0 101.09     LegendNANA
16:00 16.1 10.5 69 32 13 10.0 101.11     LegendNANA
17:00 14.5 10.2 75 31 13 10.0 101.09     Cloudy
18:00 13.3 9.6 78 32 12 10.0 101.06     LegendNANA
19:00 13.0 9.5 79 32 8 10.0 101.07     LegendNANA
20:00 11.8 10.2 90 31 12 10.0 101.09     Cloudy
21:00 12.2 11.0 92 31 8 10.0 101.12     LegendNANA
22:00 12.3 10.2 87 31 6 10.0 101.12     LegendNANA
23:00 12.3 9.7 84 34 11 10.0 101.14     Cloudy

Notes on Data Quality.

Legend

  • E = Estimated
  • M = Missing
  • NA = Not Available
Date modified: